SCP
7 7 7 6 5 6 7 8 10 10 11 10 10 12 13 11 10 10 10 9 11 12 10 6 3 2 1 1 1 1 0 0 0 0 0 0 0 1 1 1 1 1 1
7 7 7 5 5 5 7 9 11 12 12 11 10 10 10 9 10 10 9 9 10 12 10 6 3 1 1 1 1 1 0 0 0 0 0 0 0 0 1 1 1 1 1
6 6 6 6 6 6 7 10 12 13 12 11 10 8 8 8 8 8 7 8 10 11 9 5 2 1 1 1 1 1 0 0 0 0 0 0 0 0 0 0 1 1 1
5 6 8 9 10 9 9 9 11 12 11 10 9 7 7 6 6 5 6 7 9 9 7 4 2 1 1 1 1 0 0 0 0 0 0 0 0 0 0 0 0 0 1
8 9 9 10 11 12 10 9 9 9 8 8 7 5 4 4 4 3 4 5 7 7 6 4 2 1 1 1 0 0 0 0 0 0 0 0 0 0 0 0 0 0 0
10 10 9 9 10 10 9 9 9 8 7 6 5 3 3 3 2 2 3 3 4 4 4 3 2 1 1 1 0 0 0 0 0 0 0 0 0 0 0 0 0 0 0
9 8 7 7 8 8 7 7 8 7 5 4 3 2 2 2 2 2 2 2 3 3 3 2 2 1 1 1 0 0 0 0 0 0 0 0 0 0 0 0 0 0 0
6 5 5 6 6 6 5 5 6 6 4 2 2 2 1 1 1 1 2 2 3 3 3 2 2 1 1 1 1 0 0 0 0 0 0 0 0 0 0 0 0 0 0
3 3 3 4 4 4 3 3 4 3 2 2 2 1 1 1 1 1 1 1 2 3 3 2 2 1 1 1 1 0 0 0 0 0 0 0 0 0 0 0 0 0 0
2 3 3 2 2 3 3 2 2 2 2 2 1 1 1 1 1 1 1 1 1 2 2 2 2 1 1 1 1 1 0 0 0 0 0 0 0 0 0 0 0 0 0
2 2 2 1 2 2 2 2 1 1 1 1 1 1 1 1 1 1 1 1 1 1 1 2 2 1 1 1 1 1 0 0 0 0 0 0 0 0 0 0 1 1 1
1 1 1 1 2 3 3 2 1 0 0 1 1 1 1 1 1 0 0 1 1 1 1 1 1 1 0 0 0 0 0 0 0 0 0 0 0 0 0 0 0 1 1
0 0 0 1 2 3 3 2 0 0 0 0 0 0 1 1 0 0 0 0 0 0 0 0 0 0 0 0 0 0 0 0 0 0 0 0 0 0 0 0 0 0 0
1 1 1 1 2 3 2 1 0 0 0 0 0 0 0 0 0 0 0 0 0 0 0 0 0 0 0 0 0 0 0 0 0 0 0 0 0 0 0 0 0 0 0
3 3 2 1 2 2 2 1 0 0 0 0 0 0 0 0 0 0 0 0 0 0 0 0 0 0 0 0 0 0 0 0 0 0 0 0 0 0 0 0 0 0 0
4 4 2 2 1 2 1 1 0 0 0 0 0 0 0 0 0 0 0 0 0 0 0 1 1 1 0 0 0 0 0 0 0 0 0 0 0 0 0 0 0 0 0
3 3 2 1 1 1 1 1 0 0 0 0 0 0 0 0 0 0 0 0 0 0 0 0 1 0 0 0 0 0 0 0 0 0 0 0 0 0 0 0 0 0 0
1 1 0 0 0 0 0 0 0 0 0 0 0 0 0 0 0 0 0 0 0 0 0 0 0 0 0 0 0 0 0 0 0 0 0 0 0 0 0 0 0 0 0
0 0 0 0 0 0 0 0 0 0 0 0 0 0 0 0 0 0 0 0 0 0 0 0 0 0 0 0 0 0 0 0 0 0 0 0 0 0 0 0 0 0 0
0 0 0 0 0 0 0 0 0 0 0 0 0 0 0 0 0 0 0 0 0 0 0 0 0 0 0 0 0 0 0 0 0 0 0 0 0 0 0 0 0 0 0
0 0 0 0 0 0 0 0 0 0 0 0 0 0 0 0 0 0 0 0 0 0 0 0 0 0 0 0 0 0 0 0 0 0 0 0 0 0 0 0 0 0 0
0 0 0 0 0 0 0 0 0 0 0 0 0 0 0 0 0 0 0 0 0 0 0 0 0 0 0 0 0 0 0 0 0 0 0 0 0 0 0 0 0 0 0
0 0 0 0 0 0 0 0 0 0 0 0 0 0 1 1 1 0 0 0 0 0 0 0 0 0 0 0 0 0 0 0 0 0 0 0 0 0 0 0 0 0 0
0 0 0 0 0 0 0 0 0 0 0 0 0 1 1 1 1 1 0 0 0 0 0 0 0 0 0 0 0 0 0 0 0 0 0 0 0 0 0 0 0 0 0
0 0 0 0 0 0 0 0 0 0 0 0 0 1 1 1 1 0 0 0 0 0 0 0 0 0 0 0 0 0 0 0 0 0 0 0 0 0 0 0 0 0 0
0 0 0 0 0 0 0 0 0 0 0 0 0 1 1 1 0 0 0 0 0 0 0 0 0 0 0 0 0 0 0 0 0 0 0 0 0 0 0 0 0 0 0
Wind_Speed
1 2 4 4 5 5 5 5 4 3 3 2 2 2 1 1 1 2 3 3 2 2 2 1 1 1 1 1 1 1 1 2 1 1 3 4 3 3 3 3 3 3 4
2 2 4 4 3 4 4 5 4 4 3 2 2 2 1 1 1 1 1 2 2 3 3 3 2 2 1 1 1 1 1 1 0 0 1 3 4 3 3 2 3 3 3
3 2 2 3 3 4 4 4 4 3 3 3 2 2 2 1 1 1 1 2 3 3 3 3 3 2 2 2 2 2 2 1 2 1 2 1 2 3 3 3 3 3 2
2 2 2 2 3 3 3 3 3 3 3 3 3 3 2 2 2 2 2 2 2 2 3 3 3 3 2 3 3 2 2 2 2 2 2 3 3 2 3 4 3 3 3
2 2 2 1 1 1 2 3 3 3 2 2 2 2 1 1 1 1 1 2 2 2 2 3 3 3 3 3 3 2 2 2 3 2 2 2 1 2 2 4 4 3 3
3 3 2 2 2 2 1 2 3 2 1 1 1 2 2 1 1 1 1 2 2 2 2 2 3 3 3 3 3 3 2 2 2 2 2 2 2 2 2 3 3 4 4
3 3 3 3 2 1 2 2 2 1 1 1 1 1 2 2 2 2 2 2 2 2 3 3 3 3 3 3 3 2 3 3 3 3 3 3 3 3 2 2 3 3 3
4 3 3 3 2 2 2 2 2 0 0 0 1 1 1 1 2 2 2 2 2 3 3 3 3 3 3 3 2 2 3 2 3 4 3 2 3 3 3 3 2 2 3
3 2 3 4 2 2 1 1 2 1 1 1 1 1 1 1 2 2 2 2 2 3 3 2 2 2 2 3 2 2 3 2 3 3 3 3 3 3 3 3 3 3 3
3 3 3 2 2 2 1 1 1 2 1 1 1 1 1 2 3 2 2 2 2 2 2 2 2 2 2 2 2 2 2 2 3 3 3 3 3 3 2 3 3 3 4
2 2 2 2 2 2 2 1 1 1 1 1 1 1 2 2 2 2 2 2 2 2 2 2 2 2 2 3 2 3 2 2 3 2 3 4 3 2 2 2 2 2 3
2 2 2 2 2 2 2 1 1 0 1 1 2 2 2 2 2 2 3 2 3 2 2 2 2 2 2 2 3 3 3 3 3 3 3 4 3 3 3 2 3 3 3
3 3 3 2 2 1 2 1 1 1 1 1 1 2 2 2 3 3 3 2 2 2 2 2 2 2 2 2 3 3 3 3 3 3 3 4 3 4 3 3 3 3 3
2 2 2 2 2 1 1 2 2 2 2 1 1 2 2 2 3 3 3 3 2 2 3 2 2 2 2 2 3 3 3 3 3 4 4 4 4 5 4 4 4 3 3
2 2 1 2 2 2 2 2 2 2 2 2 2 2 3 2 2 3 3 3 3 3 3 2 2 2 2 2 2 2 2 3 3 4 4 5 5 6 5 4 3 3 2
1 1 2 2 2 3 2 3 3 3 2 2 2 3 2 2 2 3 3 3 3 3 2 2 2 2 2 3 3 2 2 2 3 4 4 5 5 5 6 6 6 5 4
1 1 1 2 2 3 3 3 3 2 2 2 2 2 2 3 3 3 3 3 3 2 2 2 2 2 3 4 4 3 2 2 3 3 3 3 3 3 3 5 6 5 6
1 1 2 2 3 3 3 2 2 2 2 2 2 3 2 3 3 3 3 3 2 2 2 3 3 2 3 4 4 3 2 2 3 3 3 2 3 3 3 3 4 4 4
1 1 2 3 3 3 2 2 2 2 2 3 3 3 2 2 3 3 3 3 2 3 3 2 2 2 3 4 3 2 1 2 3 3 3 2 3 4 3 2 3 5 5
1 2 2 2 2 3 2 1 2 2 3 4 3 3 2 2 2 3 3 3 2 3 3 2 2 2 3 4 3 2 0 2 3 3 4 4 4 4 4 2 2 4 5
2 2 2 2 3 3 1 2 2 3 4 3 3 3 3 2 3 2 2 2 2 2 2 2 3 2 3 3 3 2 0 1 2 3 3 4 6 7 6 4 3 6 5
2 2 2 3 3 2 1 2 3 4 3 3 3 3 3 3 2 2 2 2 2 2 2 2 3 3 2 2 3 3 2 2 2 3 3 4 7 8 7 5 5 6 4
3 2 2 3 4 3 2 3 4 3 2 2 3 3 3 3 2 1 1 2 1 1 1 1 1 3 3 3 4 3 3 2 1 2 5 7 8 6 5 5 6 4 1
3 2 2 3 4 4 3 4 5 3 2 3 3 3 3 3 2 1 1 1 1 1 1 1 1 2 3 3 2 2 2 3 2 3 5 6 5 4 4 4 4 2 1
3 2 2 3 4 4 4 5 4 2 2 3 3 3 2 2 2 2 1 1 2 2 3 2 2 1 2 4 3 2 2 2 2 2 2 3 3 3 3 3 3 3 2
3 3 3 4 4 4 4 4 3 2 2 2 2 2 2 2 1 1 2 3 3 4 4 4 3 2 3 4 4 3 3 3 1 2 1 2 2 3 3 3 3 3 2
Wind_Direction
117 104 107 118 131 131 134 140 132 139 136 131 151 160 179 190 188 207 200 194 191 184 174 185 197 192 196 228 238 241 292 300 316 327 312 302 283 266 260 266 265 256 246
58 93 113 108 127 138 138 135 139 146 146 152 163 169 171 198 199 223 219 208 205 207 201 192 198 209 216 248 245 219 242 271 299 184 333 325 329 321 292 284 267 267 266
117 116 120 122 139 148 154 151 147 141 144 141 120 88 58 24 1 283 261 237 224 224 215 205 200 206 201 229 234 218 198 243 278 202 176 204 269 308 309 289 282 282 279
105 93 96 122 166 170 156 141 138 134 140 142 146 147 163 208 233 229 238 250 238 237 226 207 201 206 206 222 236 216 198 189 253 266 222 211 205 229 302 312 299 292 286
97 76 74 161 180 142 136 136 127 128 137 125 143 141 164 208 223 233 238 264 278 259 241 216 205 212 216 225 235 229 213 200 218 233 242 247 243 211 219 283 304 310 290
64 65 69 94 49 45 78 123 122 117 130 132 137 138 154 175 179 267 273 283 284 277 262 224 208 216 221 229 231 227 225 224 224 229 222 210 222 231 218 246 272 287 290
72 64 62 74 72 88 89 108 122 135 129 92 106 161 177 176 203 225 237 261 277 268 258 230 220 222 221 221 219 221 231 229 227 232 234 226 226 220 211 229 260 274 287
62 52 53 76 85 98 108 106 106 99 41 9 278 238 202 207 226 230 233 240 247 256 253 229 228 227 218 217 219 224 232 228 231 241 239 240 245 230 212 207 221 278 291
63 51 44 47 44 76 97 125 121 120 210 227 227 229 248 247 242 248 247 247 251 256 250 232 232 233 225 219 212 223 241 239 238 242 245 248 252 243 229 215 197 199 259
58 50 41 41 34 46 62 85 150 189 215 234 237 235 249 255 250 249 259 260 262 264 261 249 230 230 235 231 219 239 249 241 248 241 246 253 254 251 238 226 217 198 205
71 62 38 24 25 33 34 29 342 213 223 248 252 255 258 265 269 260 256 257 265 266 259 246 235 237 244 240 233 245 246 247 263 263 248 258 258 258 258 246 239 229 211
62 61 45 28 24 20 13 4 338 313 271 268 274 262 261 264 268 269 268 266 264 260 262 257 242 246 253 249 242 253 259 248 254 260 259 266 268 266 263 253 251 246 229
46 42 37 17 2 342 344 340 336 290 281 302 301 287 277 265 260 270 277 276 272 271 271 263 256 256 255 249 249 243 251 252 250 249 249 260 263 271 270 262 259 258 256
57 40 20 349 332 316 325 338 316 300 301 317 315 296 283 272 268 274 280 277 273 270 274 271 259 258 259 249 251 250 254 261 263 256 247 249 248 254 260 265 262 260 269
44 29 348 324 332 335 338 330 319 306 303 309 299 285 282 290 298 294 289 283 279 272 267 261 263 268 263 261 266 263 259 261 271 277 268 259 260 256 250 254 250 247 253
6 353 346 336 329 322 320 323 309 297 291 284 278 285 294 293 297 301 295 292 289 290 280 263 261 271 274 279 276 262 259 264 268 281 285 279 274 273 273 270 260 238 227
316 324 312 298 292 296 292 291 286 296 309 283 279 291 294 303 301 305 306 296 291 291 289 274 259 256 270 281 287 286 261 260 264 269 280 288 290 289 285 289 292 283 264
305 304 296 294 287 287 290 290 297 304 300 287 284 292 297 305 307 307 303 297 298 293 280 273 270 268 280 284 289 307 309 291 284 278 271 273 290 296 299 299 306 300 293
255 269 273 277 278 281 286 318 323 317 307 294 280 277 277 289 302 302 297 293 300 298 288 277 267 268 284 291 303 314 318 306 303 301 293 278 286 294 310 311 304 308 307
258 273 291 306 299 293 299 325 315 313 297 286 277 273 268 269 280 282 281 283 283 278 290 293 281 260 273 286 300 308 287 302 307 312 308 293 293 302 313 284 276 289 291
270 279 305 308 289 294 313 311 309 291 280 284 284 282 271 265 268 276 282 290 295 307 318 318 310 295 280 285 291 297 236 266 292 302 304 303 311 313 310 295 251 258 270
284 285 297 297 293 293 303 302 292 277 286 298 299 290 283 281 293 291 301 314 312 319 316 324 327 320 307 289 288 292 281 262 247 279 289 295 308 310 308 301 288 289 292
275 278 277 296 300 292 276 268 274 273 287 309 302 292 296 296 303 283 286 312 319 310 301 307 306 308 312 306 296 296 298 302 254 274 293 305 314 316 312 311 312 311 297
277 277 286 298 299 296 285 263 269 272 269 286 294 297 304 313 317 299 267 272 285 291 294 277 280 299 309 314 318 317 318 327 324 313 314 321 328 329 313 319 327 315 280
268 262 258 264 275 284 280 274 270 262 270 279 286 292 293 300 299 297 280 247 251 223 223 239 232 244 292 289 299 324 315 304 301 330 346 350 343 341 333 331 329 333 345
269 272 264 259 267 275 279 281 277 256 251 281 291 285 288 292 277 287 318 316 283 289 273 252 232 255 262 287 304 312 317 319 2 67 356 332 331 328 328 330 331 332 328